User: anonymous
Location: Fort Wayne
(41.1310°N, 85.1290°W)
Time: 03:34:57
(UTC-04:00)
Language:

Cosmos 1000 Rocket - Orbit

View from above orbital plane
View from above orbital plane
View from above satellite
View from above satellite

Ground track
Ground track

The orbit data is extracted from the following two-line orbital elements,

1 10777U 78034B   14243.45108263  .00000135  00000-0  12010-3 0  3302
2 10777 082.9396 269.7318 0026713 174.0766 295.4518 13.77297897829875
Epoch (UTC): 31 August 2014 10:49:33
Eccentricity: 0.0026713
inclination: 82.9396°
perigee height: 954 km
apogee height: 993 km
right ascension of ascending node: 269.7318°
argument of perigee: 174.0766°
revolutions per day: 13.77297897
mean anomaly at epoch: 295.4518°
orbit number at epoch: 82987

The dashed part of the orbit path shows where the satellite is in the earth's shadow,  

DLR